This is the latest recevied weather packets stored in our database for station/object N7ZAP. If no packets are shown the sender has not sent any weather packets the latest 10 day(s).
| Time | Temp. | Humidity | Pressure | Rain* | Wind** | Luminosity | Snow |
|---|---|---|---|---|---|---|---|
| 1788502441 | 23.33° C | 49% | 1018.8 hPa | 0 mm | - | - | - |
| 1788502137 | 23.33° C | 49% | 1018.7 hPa | 0 mm | - | - | - |
| 1788501833 | 23.33° C | 48% | 1018.5 hPa | 0 mm | - | - | - |
| 1788501528 | 23.89° C | 48% | 1018.8 hPa | 0 mm | - | - | - |
| 1788501222 | 23.89° C | 48% | 1018.8 hPa | 0 mm | - | - | - |
| 1788500918 | 23.33° C | 48% | 1018.7 hPa | 0 mm | - | - | - |
| 1788500614 | 23.33° C | 49% | 1018.8 hPa | 0 mm | - | - | - |
| 1788500310 | 23.33° C | 50% | 1018.7 hPa | 0 mm | - | - | - |
| 1788500009 | 23.33° C | 50% | 1018.8 hPa | 0 mm | - | - | - |
| 1788499705 | 23.89° C | 50% | 1018.7 hPa | 0 mm | - | - | - |
| 1788499401 | 23.89° C | 50% | 1018.8 hPa | 0 mm | - | - | - |
| 1788499097 | 24.44° C | 52% | 1018.4 hPa | 0 mm | - | - | - |
| 1788498793 | 25° C | 46% | 1019.1 hPa | 0 mm | - | - | - |
| 1788498488 | 25° C | 43% | 1019.1 hPa | 0 mm | - | - | - |
| 1788498185 | 25° C | 43% | 1019 hPa | 0 mm | - | - | - |
| 1788497884 | 25° C | 42% | 1018.9 hPa | 0 mm | - | - | - |
| 1788497579 | 25° C | 43% | 1019 hPa | 0 mm | - | - | - |
| 1788497274 | 25° C | 43% | 1019 hPa | 0 mm | - | - | - |
| 1788496971 | 25° C | 43% | 1018.9 hPa | 0 mm | - | - | - |
| 1788496666 | 25° C | 43% | 1019 hPa | 0 mm | - | - | - |
| 1788496363 | 25° C | 43% | 1018.9 hPa | 0 mm | - | - | - |
| 1788496057 | 25° C | 42% | 1018.9 hPa | 0 mm | - | - | - |
| 1788495754 | 25° C | 42% | 1019 hPa | 0 mm | - | - | - |
| 1788495453 | 25° C | 42% | 1018.9 hPa | 0 mm | - | - | - |
| 1788495150 | 25.56° C | 41% | 1018.9 hPa | 0 mm | - | - | - |
* Rain latest hour (hover to see other rain measurements)
** Current wind speed in m/s (hover to see current wind gust speed)